DLH712 EDDF-RKSI

Flight info

Callsign DLH712
Flight time N/A
Altitude 31000
Route SULUS4D/07C SULUS Z650 VEMUT/N0475F330 DCT PEPIK DCT BUDOP/N0471F350 DCT DINRO N743 UDROS UM859 KARDE UN644 ROLIN DCT TAGAR DCT BT DCT BARAD M747 SUBUT T916 BALUN/K0872F350 T916 EFMIF/K0872F370 T916 PIGAL M610 RULAD/K0863S1130 A343 POSOT B215 FKG W188 LIKMI W270 BIVOR/K0857S1190 W270 DKO W69 HUR B339 LADIX W34 VAPGU W100 ORAVA W201 UNSEK A326 DONVO G597 AGAVO/N0439F290 Y644 REBIT
Aircraft A346/H-SDE2E3FGHIJ3J4J5M1RWXY/LB1D1

Departure

Time 2026-05-07 22:13
Airport Frankfurt Main Airport (EDDF)

Arrival

Time N/A
Airport Incheon International Airport (RKSI)
Time Latitude Longitude Altitude Speed Heading
2026-05-07 22:13 50.05927 8.94586 8404 ft 288 kts 88°
2026-05-07 22:13 50.05986 8.97720 9035 ft 290 kts 88°
2026-05-07 22:14 50.06041 9.00866 9655 ft 293 kts 88°
2026-05-07 22:14 50.06095 9.04104 10248 ft 296 kts 89°
2026-05-07 22:14 50.06146 9.07309 10620 ft 307 kts 89°
2026-05-07 22:14 50.06198 9.10725 10874 ft 321 kts 89°
2026-05-07 22:15 50.06252 9.14287 11136 ft 335 kts 89°
2026-05-07 22:15 50.06307 9.17998 11398 ft 349 kts 89°
2026-05-07 22:15 50.06364 9.21859 11657 ft 363 kts 89°
2026-05-07 22:15 50.06420 9.25861 11911 ft 377 kts 89°
2026-05-07 22:16 50.06477 9.30004 12235 ft 388 kts 89°
2026-05-07 22:16 50.06533 9.34241 12790 ft 391 kts 89°
2026-05-07 22:16 50.06587 9.38486 13408 ft 394 kts 89°
2026-05-07 22:16 50.06640 9.42778 13991 ft 398 kts 89°
2026-05-07 22:17 50.06692 9.47122 14485 ft 401 kts 89°
2026-05-07 22:17 50.06742 9.51482 15021 ft 404 kts 89°
2026-05-07 22:17 50.06791 9.55885 15559 ft 407 kts 89°
2026-05-07 22:17 50.06839 9.60317 16089 ft 409 kts 89°
2026-05-07 22:18 50.06884 9.64711 16611 ft 412 kts 89°
2026-05-07 22:18 50.06974 9.73722 17644 ft 418 kts 89°
2026-05-07 22:18 50.07017 9.78282 18169 ft 421 kts 89°
2026-05-07 22:19 50.07059 9.82851 18636 ft 424 kts 89°
2026-05-07 22:19 50.07099 9.87467 19079 ft 426 kts 89°
2026-05-07 22:19 50.07136 9.92111 19530 ft 429 kts 89°
2026-05-07 22:19 50.07172 9.96771 19975 ft 431 kts 89°
2026-05-07 22:20 50.07206 10.01466 20414 ft 434 kts 89°
2026-05-07 22:20 50.07238 10.06176 20846 ft 436 kts 89°
2026-05-07 22:20 50.07267 10.10856 21271 ft 439 kts 89°
2026-05-07 22:20 50.07295 10.15629 21699 ft 441 kts 89°
2026-05-07 22:21 50.07321 10.20429 22126 ft 444 kts 89°
2026-05-07 22:21 50.07346 10.25257 22544 ft 446 kts 90°
2026-05-07 22:21 50.07374 10.30113 22963 ft 449 kts 90°
2026-05-07 22:21 50.07402 10.35003 23369 ft 451 kts 90°
2026-05-07 22:22 50.07426 10.39904 23751 ft 454 kts 90°
2026-05-07 22:22 50.07448 10.44842 24081 ft 456 kts 90°
2026-05-07 22:22 50.07467 10.49795 24426 ft 458 kts 90°
2026-05-07 22:22 50.07483 10.54697 24765 ft 460 kts 90°
2026-05-07 22:23 50.07496 10.59710 25107 ft 462 kts 90°
2026-05-07 22:23 50.07509 10.64722 25442 ft 464 kts 90°
2026-05-07 22:23 50.07383 10.69752 25754 ft 465 kts 96°